カタログに戻る

TITAN 3C TRANSTAGE DEB

LostHEO
NORAD 28817·DEBRIS·🇺🇸 United States

打ち上げ Dec 21, 1965 から Cape Canaveral Space Force Station

Loading…

次のパス (今後24時間)

TLE

古いSource: Space-Track

元期: May 5, 2024, 19:57 UTC

1 28817U 65108CE  24126.83181932  .00006295  00000-0  61157-2 0  9990
2 28817  26.3532 348.0334 6241564 216.8832  76.9983  3.60221241277641

AllMySatでTITAN 3C TRANSTAGE DEBをリアルタイム追跡

Download on the App Store